Location: Munkebjergskolens Observatorium
(55.3864°N, 10.3987°E)
Time: 22:10:17
(UTC+01:00)

DELTA 1 DEB - Pass Details

Date: 05 December 2023
Orbit: 783 x 826 km, 98.9° (Epoch: 04 March)

Event Time Altitude Azimuth Distance (km) Brightness Sun altitude
Rises 17:02:14 0° 143° (SE) 3,295 ? -9.4°
Reaches altitude 10° 17:04:35 10° 138° (SE) 2,375 ? -9.7°
Maximum altitude 17:09:38 51° 64° (ENE) 1,020 ? -10.3°
Drops below altitude 10° 17:14:47 10° 350° (N) 2,419 ? -11.0°
Sets 17:17:12 0° 346° (NNW) 3,361 ? -11.3°
